Regional Weather Roundup
Issued by NWS

Home | Current Version | Previous Version | Text Only | Print | Product List | Glossary Off
Versions: 1 2 3 4 5 6 7 8 9 10 11 12 13 14 15 16 17 18 19 20 21 22 23 24 25 26 27 28 29 30 31 32 33 34 35 36 37 38 39 40 41 42 43 44 45 46 47 48 49 50

000
ASUS43 KLSX 061007
RWRMO

WEATHER SUMMARY FOR MISSOURI
NATIONAL WEATHER SERVICE SPRINGFIELD MO
500 AM CDT MON JUL 06 2015

NOTE: "FAIR" INDICATES FEW OR NO CLOUDS BELOW 12,000 FEET WITH NO
       SIGNIFICANT WEATHER AND/OR OBSTRUCTIONS TO VISIBILITY.
       CURRENT SKY AND/OR WEATHER CONDITIONS ARE NOT AVAILABLE FOR
       CHILLICOTHE AND FARMINGTON.

MOZ001>031-035>038-043-044-053-054-061100-
...NORTHERN AND WESTERN MISSOURI...

CITY           SKY/WX    TMP DP  RH WIND       PRES   REMARKS
KANSAS CTY INT CLOUDY    74  70  87 S14       29.88F
KANSAS C DTWN  CLOUDY    75  69  81 S15       29.88F
LEE`S SUMMIT   MOCLDY    74  68  81 S10       29.91F
ST JOSEPH      CLOUDY    77  71  82 S12       29.85F
CHILLICOTHE      N/A     75  68  78 S8        29.89F
KIRKSVILLE     MOCLDY    72  68  87 S7        29.92F

$$
MOZ066>068-077>081-088>096-101>105-061100-
...SOUTHWEST MISSOURI...

CITY           SKY/WX    TMP DP  RH WIND       PRES   REMARKS
SPRINGFIELD    PTCLDY    72  69  90 S9        29.99F
JOPLIN         PTCLDY    75  71  87 S10       29.96F

$$
MOZ032>034-039>042-045>050-055>058-069>072-061100-
...CENTRAL MISSOURI...

CITY           SKY/WX    TMP DP  RH WIND       PRES   REMARKS
COLUMBIA       PTCLDY    73  71  93 S8        29.96F
JEFFERSON CITY PTCLDY    73  71  93 SE5       29.96F
ROLLA          PTCLDY    72  70  93 S12       29.99S
SEDALIA        MOCLDY    73  68  84 S9        29.94F
WHITEMAN AFB   MOCLDY    72  69  88 S9        29.92F
WARRENSBURG    MOCLDY    72  68  88 S6        29.91F
OSAGE BEACH    PTCLDY    72  68  88 SE3       29.97S

$$
MOZ051-052-059>065-061100-
...EAST CENTRAL MISSOURI...

CITY           SKY/WX    TMP DP  RH WIND       PRES   REMARKS
ST LOUIS INTL  PTCLDY    74  68  81 S5        30.00F
SPIRIT OF STL  CLEAR     71  70  96 CALM      29.98S
ST CHARLES     CLEAR     70  68  93 E3        29.98F FOG

$$
MOZ072>076-082>087-097>100-106>115-061100-
...SOUTH CENTRAL AND SOUTHEAST MISSOURI...

CITY           SKY/WX    TMP DP  RH WIND       PRES   REMARKS
CAPE GIRARDEAU CLOUDY    73  72  96 S5        30.04R
FARMINGTON     CLOUDY    72  72 100 S6        30.06S
POPLAR BLUFF   CLOUDY    73  72  96 S3        30.03R
WEST PLAINS    CLOUDY    71  69  93 CALM      30.05R FOG

$$



USA.gov is the U.S. government's official web portal to all federal, state and local government web resources and services.